FENGYUN 1C DEB, 31491

Orbit data source: Space-Track

FENGYUN 1C DEB, 31491 is space debris in SSO originally from a launch on Mon, 10 May 1999 UTC launched from the Taiyaun Space Center, China (TSC). Fengyun 1C debris stems from the Chinese weather satellite Fengyun-1C, which was intentionally destroyed by a Chinese anti-satellite missile in 2007. This event dramatically increased the amount of space debris, with thousands of trackable fragments posing hazards to satellites and human spaceflight. The Fengyun 1C debris cloud has become a focal point in discussions about space sustainability and the need for international regulations to prevent the creation of new debris.

Loading next visibility...
Identifier
31491, 1999-025BWE
Orbit
SSO
Country
Flag of CNCN / PRC
Related business
Manufacturer
Unknown
Mission
Spacecraft
Bus & Motor
Unknown
Mass
Unknown
Launch date (UTC)
1999-05-10 (27 years ago)
Launch vehicle
Unknown
Launch site
Taiyaun Space Center, China (TSC)
Object type
Payload
Rocket body
Debris
Shape & HBR
Unknown shape, 0.1 m
Radar Cross Section
Small (<0.1 m²)

Expand to show TLE details & history
Last TLE update: 2 days ago

TLE from 2 days ago
0 FENGYUN 1C DEB
1 31491U 99025BWE 25352.20970644  .00002896  00000-0  14383-2 0  9998
2 31491  99.3072 261.0688 0051113 253.2120 106.3442 14.17299530638050
Epoch: 2025-12-18T05:01Z
TLE epoch observation values (Epoch: 2025-12-18T05:01:58.636Z)
Latitude
-0°
Longitude
98.50599°
Altitude
847.941 km
Speed
7.423 km/s
True Right ascension
17h 24m 16s
True Declination
0° 00' 00"
Sunlit
Object was in daylight at epoch
Visualization orbit readout
Latitude
Unknown
Longitude
Unknown
Altitude
Unknown
Speed
Unknown
Apparent Right ascension
Unknown
Apparent Declination
Unknown
Sunlit
N/A
Visualization observer readout
Local Sidereal Time
23:33:47
Azimuth
Unknown
Elevation
Unknown
Doppler factor
Unknown
Orbital elements
Apogee altitude
868.543 km
Perigee altitude
794.84 km
Semi-major axis
7,209.829 km
Eccentricity
0.00511
Inclination
99.3072°
RAAN
261.0688°
Arg. of periapsis
253.212°
True anomaly
106.90522°
Mean anomaly
106.3442°
Eccentric anomaly
106.62481°
Mean motion
3.54532 °/min
Orbital period
101.54 mins
BSTAR
0.0014383
Loading maneuver chart data...
Computing Atmospheric mass density...
Loading historical data...
Loading historical data...
Loading historical data...
Loading historical data...
Loading historical data...
Loading historical data...
Loading historical data...

Documentation

Showing up to 5 results
|